Volver al catálogo

STARLINK-35887

ActivoComunicacionesVLEO
NORAD 66959·PAYLOAD·🇺🇸 United States

Lanzado Dec 8, 2025 desde Cape Canaveral Space Force Station

Loading…

Próximos Pases (próximas 24 horas)

TLE

ActualizadoSource: CelesTrak SupGP

Época: Sep 14, 2026, 21:00 UTC

1 66959C 25288A   26257.87548611  .00048663  00000+0  17629-2 0  2572
2 66959  43.0026  34.9310 0001351 277.7334  29.8795 15.27547420    13

Sigue STARLINK-35887 en tiempo real con AllMySat

Download on the App Store